• In Netherlands
  • List of Countries
  • For 7 days
  • Water Temperature
  • Satellite Maps
  • Weather Map
  • Weather Widgets
  • user-avatar
    Login

    Hourly Weather Kalgoorlie

    Today, 24 March, Friday

    Time Temperature Precipitation Wind Pressure Humidity
    00:00 +21°C° 0 mm 2 mps 727 mmHg 81%
    01:00 +20°C° 0 mm 2 mps 727 mmHg 79%
    02:00 +20°C° 0 mm 2 mps 727 mmHg 77%
    03:00 +20°C° 0 mm 2 mps 727 mmHg 77%
    04:00 +20°C° 0 mm 2 mps 727 mmHg 77%
    05:00 +20°C° 0 mm 2 mps 727 mmHg 76%
    06:00 +20°C° 0 mm 2 mps 728 mmHg 74%
    07:00 +20°C° 0 mm 3 mps 728 mmHg 71%
    08:00 +21°C° 0 mm 3 mps 728 mmHg 68%
    09:00 +22°C° 0 mm 3 mps 728 mmHg 65%
    10:00 +23°C° 0 mm 4 mps 728 mmHg 61%
    11:00 +25°C° 0 mm 4 mps 728 mmHg 58%
    12:00 +25°C° 0 mm 4 mps 728 mmHg 57%
    13:00 +26°C° 0 mm 3 mps 727 mmHg 57%
    14:00 +26°C° 0 mm 3 mps 727 mmHg 56%
    15:00 +26°C° 0.1 mm 3 mps 727 mmHg 59%
    16:00 +25°C° 0.1 mm 3 mps 727 mmHg 61%
    17:00 +25°C° 0.1 mm 3 mps 727 mmHg 64%
    18:00 +24°C° 0.1 mm 3 mps 727 mmHg 66%
    19:00 +24°C° 0.1 mm 3 mps 727 mmHg 67%
    20:00 +22°C° 0.1 mm 4 mps 728 mmHg 69%
    21:00 +22°C° 0 mm 4 mps 728 mmHg 72%
    22:00 +22°C° 0 mm 5 mps 728 mmHg 74%
    23:00 +21°C° 0 mm 5 mps 728 mmHg 77%

    Tomorrow, 25 March, Saturday

    Time Temperature Precipitation Wind Pressure Humidity
    00:00 +21°C° 0 mm 5 mps 727 mmHg 78%
    01:00 +20°C° 0 mm 5 mps 727 mmHg 80%
    02:00 +20°C° 0 mm 5 mps 727 mmHg 81%
    03:00 +20°C° 0.1 mm 6 mps 727 mmHg 83%
    04:00 +20°C° 0.1 mm 6 mps 727 mmHg 85%
    05:00 +20°C° 0.1 mm 6 mps 727 mmHg 87%
    06:00 +19°C° 0.7 mm 6 mps 727 mmHg 87%
    07:00 +19°C° 0.7 mm 6 mps 727 mmHg 88%
    08:00 +19°C° 0.7 mm 6 mps 727 mmHg 88%
    09:00 +20°C° 0.3 mm 6 mps 727 mmHg 88%
    10:00 +20°C° 0.3 mm 7 mps 727 mmHg 87%
    11:00 +20°C° 0.3 mm 7 mps 726 mmHg 86%
    12:00 +21°C° 0.1 mm 6 mps 726 mmHg 85%
    13:00 +21°C° 0.1 mm 5 mps 725 mmHg 84%
    14:00 +22°C° 0.1 mm 5 mps 725 mmHg 83%
    15:00 +22°C° 0.1 mm 5 mps 725 mmHg 84%
    16:00 +22°C° 0.1 mm 5 mps 725 mmHg 85%
    17:00 +22°C° 0.1 mm 5 mps 725 mmHg 86%
    18:00 +21°C° 0.2 mm 5 mps 725 mmHg 87%
    19:00 +21°C° 0.2 mm 5 mps 725 mmHg 89%
    20:00 +21°C° 0.2 mm 4 mps 725 mmHg 91%
    21:00 +21°C° 0.2 mm 4 mps 725 mmHg 91%
    22:00 +21°C° 0.2 mm 3 mps 725 mmHg 91%
    23:00 +21°C° 0.2 mm 3 mps 725 mmHg 92%

    Day after tomorrow, 26 March, Sunday

    Time Temperature Precipitation Wind Pressure Humidity
    00:00 +21°C° 0.1 mm 3 mps 724 mmHg 92%
    01:00 +21°C° 0.1 mm 2 mps 724 mmHg 93%
    02:00 +20°C° 0.1 mm 2 mps 724 mmHg 93%
    03:00 +20°C° 0 mm 2 mps 723 mmHg 94%
    04:00 +21°C° 0 mm 1 mps 723 mmHg 95%
    05:00 +20°C° 0 mm 1 mps 723 mmHg 97%
    06:00 +20°C° 0 mm 3 mps 724 mmHg 92%
    07:00 +21°C° 0 mm 4 mps 725 mmHg 87%
    08:00 +22°C° 0 mm 6 mps 725 mmHg 82%
    09:00 +24°C° 0 mm 7 mps 726 mmHg 73%
    10:00 +26°C° 0 mm 8 mps 726 mmHg 64%
    11:00 +28°C° 0 mm 9 mps 726 mmHg 55%
    12:00 +28°C° 0 mm 9 mps 726 mmHg 47%
    13:00 +28°C° 0 mm 9 mps 726 mmHg 40%
    14:00 +28°C° 0 mm 9 mps 726 mmHg 32%
    15:00 +27°C° 0 mm 9 mps 726 mmHg 37%
    16:00 +26°C° 0 mm 9 mps 727 mmHg 42%
    17:00 +23°C° 0 mm 9 mps 727 mmHg 47%
    18:00 +22°C° 0 mm 7 mps 728 mmHg 48%
    19:00 +21°C° 0 mm 6 mps 729 mmHg 49%
    20:00 +20°C° 0 mm 4 mps 730 mmHg 49%
    21:00 +19°C° 0 mm 4 mps 730 mmHg 49%
    22:00 +18°C° 0 mm 4 mps 731 mmHg 49%
    23:00 +18°C° 0 mm 3 mps 732 mmHg 48%

    27 March, Monday

    Time Temperature Precipitation Wind Pressure Humidity
    00:00 +17°C° 0 mm 4 mps 732 mmHg 50%
    01:00 +15°C° 0 mm 4 mps 732 mmHg 52%
    02:00 +14°C° 0 mm 5 mps 732 mmHg 54%
    03:00 +14°C° 0 mm 4 mps 732 mmHg 57%
    04:00 +13°C° 0 mm 4 mps 733 mmHg 60%
    05:00 +12°C° 0 mm 4 mps 733 mmHg 63%
    06:00 +13°C° 0 mm 4 mps 733 mmHg 61%
    07:00 +14°C° 0 mm 4 mps 734 mmHg 60%
    08:00 +14°C° 0 mm 4 mps 734 mmHg 58%
    09:00 +17°C° 0 mm 4 mps 734 mmHg 51%
    10:00 +18°C° 0 mm 3 mps 734 mmHg 43%
    11:00 +20°C° 0 mm 3 mps 734 mmHg 36%
    12:00 +21°C° 0 mm 3 mps 734 mmHg 33%
    13:00 +23°C° 0 mm 2 mps 733 mmHg 29%
    14:00 +24°C° 0 mm 2 mps 732 mmHg 26%
    15:00 +24°C° 0 mm 2 mps 732 mmHg 26%
    16:00 +24°C° 0 mm 2 mps 732 mmHg 27%
    17:00 +24°C° 0 mm 2 mps 732 mmHg 27%
    18:00 +23°C° 0 mm 2 mps 732 mmHg 31%
    19:00 +20°C° 0 mm 2 mps 733 mmHg 35%
    20:00 +19°C° 0 mm 2 mps 733 mmHg 39%
    21:00 +19°C° 0 mm 2 mps 733 mmHg 41%
    22:00 +18°C° 0 mm 2 mps 732 mmHg 44%
    23:00 +18°C° 0 mm 3 mps 732 mmHg 46%

    28 March, Tuesday

    Time Temperature Precipitation Wind Pressure Humidity
    00:00 +17°C° 0 mm 3 mps 732 mmHg 48%
    01:00 +17°C° 0 mm 3 mps 732 mmHg 51%
    02:00 +16°C° 0 mm 3 mps 731 mmHg 53%
    03:00 +16°C° 0 mm 3 mps 731 mmHg 54%
    04:00 +14°C° 0 mm 3 mps 731 mmHg 56%
    05:00 +14°C° 0 mm 3 mps 731 mmHg 57%
    06:00 +16°C° 0 mm 3 mps 731 mmHg 54%
    07:00 +17°C° 0 mm 3 mps 731 mmHg 51%
    08:00 +18°C° 0 mm 4 mps 732 mmHg 47%
    09:00 +20°C° 0 mm 4 mps 731 mmHg 42%
    10:00 +22°C° 0 mm 4 mps 731 mmHg 36%
    11:00 +25°C° 0 mm 4 mps 731 mmHg 30%
    12:00 +26°C° 0 mm 4 mps 730 mmHg 28%
    13:00 +28°C° 0 mm 4 mps 729 mmHg 26%
    14:00 +29°C° 0 mm 4 mps 728 mmHg 24%
    15:00 +29°C° 0 mm 4 mps 728 mmHg 25%
    16:00 +29°C° 0 mm 3 mps 728 mmHg 25%
    17:00 +28°C° 0 mm 2 mps 728 mmHg 26%
    18:00 +27°C° 0 mm 2 mps 728 mmHg 28%
    19:00 +25°C° 0 mm 2 mps 729 mmHg 31%
    20:00 +24°C° 0 mm 2 mps 729 mmHg 33%
    21:00 +22°C° 0 mm 3 mps 729 mmHg 34%
    22:00 +21°C° 0 mm 3 mps 729 mmHg 35%
    23:00 +20°C° 0 mm 3 mps 729 mmHg 36%

    29 March, Wednesday

    Time Temperature Precipitation Wind Pressure Humidity
    00:00 +19°C° 0 mm 4 mps 729 mmHg 46%
    01:00 +17°C° 0 mm 5 mps 729 mmHg 56%
    02:00 +15°C° 0 mm 6 mps 729 mmHg 66%
    03:00 +15°C° 0 mm 6 mps 730 mmHg 72%
    04:00 +14°C° 0 mm 6 mps 730 mmHg 78%
    05:00 +14°C° 0 mm 6 mps 731 mmHg 85%
    06:00 +14°C° 0 mm 6 mps 732 mmHg 80%
    07:00 +15°C° 0 mm 6 mps 733 mmHg 76%
    08:00 +15°C° 0 mm 7 mps 733 mmHg 72%
    09:00 +17°C° 0 mm 7 mps 734 mmHg 65%
    10:00 +20°C° 0 mm 6 mps 734 mmHg 57%
    11:00 +21°C° 0 mm 6 mps 734 mmHg 50%
    12:00 +22°C° 0 mm 6 mps 734 mmHg 47%
    13:00 +22°C° 0 mm 7 mps 733 mmHg 44%
    14:00 +23°C° 0 mm 7 mps 733 mmHg 41%
    15:00 +22°C° 0 mm 7 mps 733 mmHg 40%
    16:00 +22°C° 0 mm 7 mps 734 mmHg 39%
    17:00 +21°C° 0 mm 7 mps 734 mmHg 38%
    18:00 +20°C° 0 mm 7 mps 735 mmHg 43%
    19:00 +17°C° 0 mm 7 mps 735 mmHg 48%
    20:00 +16°C° 0 mm 7 mps 736 mmHg 52%
    21:00 +15°C° 0 mm 7 mps 736 mmHg 55%
    22:00 +14°C° 0 mm 7 mps 736 mmHg 58%
    23:00 +14°C° 0 mm 6 mps 737 mmHg 60%
    Show more